Location: Boiro
(42.6475°N, 8.8834°W)
Time: 07:56:31
(UTC+01:00)

SR - Pass Details

Date: 09 December 2021
Orbit: 583 x 872 km, 66.7° (Epoch: 16 January)

Event Time Altitude Azimuth Distance (km) Brightness Sun altitude
Rises 06:45:57 0° 344° (NNW) 2,820 - -22.7°
Exits shadow 06:48:20 - 3° (N) 2,171 ? -22.3°
Reaches altitude 10° 06:49:36 10° 17° (NNE) 1,940 ? -22.1°
Maximum altitude 06:51:17 12° 40° (NE) 1,830 ? -21.8°
Drops below altitude 10° 06:52:58 10° 63° (ENE) 1,974 ? -21.5°
Sets 06:56:46 0° 95° (E) 2,933 ? -20.8°
